******** Week 359 almanac for PRN-1 ******** ID: 1 Health: 0 Eccentricity: 0.001569747925 Time of Applicability(s): 589824 Orbital Inclination(rad): 0.9583449099 Rate of Right Ascen(r/s): -7.817468486e-09 SQRT(A) (m 1/2): 5153.581055 Right Ascen at Week(rad): -3.024023289 Argument of Perigee(rad): 0.072147281 Mean Anom(rad): 2.100783319 Af0(s): 0.0002570029419 Af1(s/s): -7.275958e-12 week: 359 ******** Week 359 almanac for PRN-2 ******** ID: 2 Health: 0 Eccentricity: 0.01691961288 Time of Applicability(s): 589824 Orbital Inclination(rad): 0.9636179688 Rate of Right Ascen(r/s): -7.634603726e-09 SQRT(A) (m 1/2): 5153.552734 Right Ascen at Week(rad): 3.096707988 Argument of Perigee(rad): -0.8142546793 Mean Anom(rad): -2.731327695 Af0(s): 3.843739014e-05 Af1(s/s): 7.275958e-12 week: 359 ******** Week 359 almanac for PRN-3 ******** ID: 3 Health: 0 Eccentricity: 0.006474018097 Time of Applicability(s): 589824 Orbital Inclination(rad): 0.9931530911 Rate of Right Ascen(r/s): -7.954617056e-09 SQRT(A) (m 1/2): 5153.580566 Right Ascen at Week(rad): -2.037260561 Argument of Perigee(rad): 1.201923383 Mean Anom(rad): -0.04364205304 Af0(s): 0.0004386384521 Af1(s/s): -1.091394e-11 week: 359 ******** Week 359 almanac for PRN-4 ******** ID: 4 Health: 0 Eccentricity: 0.003715991974 Time of Applicability(s): 589824 Orbital Inclination(rad): 0.970502906 Rate of Right Ascen(r/s): -7.920329913e-09 SQRT(A) (m 1/2): 5153.688965 Right Ascen at Week(rad): -0.9662989152 Argument of Perigee(rad): -2.881070586 Mean Anom(rad): 2.942368023 Af0(s): 3.69300415e-05 Af1(s/s): 3.637979e-12 week: 359 ******** Week 359 almanac for PRN-5 ******** ID: 5 Health: 0 Eccentricity: 0.005389213562 Time of Applicability(s): 589824 Orbital Inclination(rad): 0.9797307592 Rate of Right Ascen(r/s): -8.080336578e-09 SQRT(A) (m 1/2): 5153.65332 Right Ascen at Week(rad): -2.09698844 Argument of Perigee(rad): 1.416742861 Mean Anom(rad): -2.679381323 Af0(s): -0.0001816355103 Af1(s/s): 0 week: 359 ******** Week 359 almanac for PRN-6 ******** ID: 6 Health: 0 Eccentricity: 0.003865718842 Time of Applicability(s): 589824 Orbital Inclination(rad): 0.9872388761 Rate of Right Ascen(r/s): -7.497455156e-09 SQRT(A) (m 1/2): 5153.59668 Right Ascen at Week(rad): -3.073533493 Argument of Perigee(rad): -0.5720362665 Mean Anom(rad): 1.281668288 Af0(s): -0.0004838589111 Af1(s/s): 0 week: 359 ******** Week 359 almanac for PRN-7 ******** ID: 7 Health: 0 Eccentricity: 0.0204577446 Time of Applicability(s): 589824 Orbital Inclination(rad): 0.9513820752 Rate of Right Ascen(r/s): -7.714607058e-09 SQRT(A) (m 1/2): 5153.578125 Right Ascen at Week(rad): 0.04225038492 Argument of Perigee(rad): -1.992718193 Mean Anom(rad): 0.4118487497 Af0(s): -0.0001220952393 Af1(s/s): -3.637979e-12 week: 359 ******** Week 359 almanac for PRN-8 ******** ID: 8 Health: 0 Eccentricity: 0.01156711578 Time of Applicability(s): 589824 Orbital Inclination(rad): 0.9432867313 Rate of Right Ascen(r/s): -8.080336578e-09 SQRT(A) (m 1/2): 5153.625977 Right Ascen at Week(rad): 2.089718135 Argument of Perigee(rad): 0.5233454842 Mean Anom(rad): -3.042667747 Af0(s): 0.000383620227 Af1(s/s): -3.637979e-12 week: 359 ******** Week 359 almanac for PRN-9 ******** ID: 9 Health: 0 Eccentricity: 0.003357410431 Time of Applicability(s): 589824 Orbital Inclination(rad): 0.9646246437 Rate of Right Ascen(r/s): -8.023191341e-09 SQRT(A) (m 1/2): 5153.731934 Right Ascen at Week(rad): -1.030544847 Argument of Perigee(rad): 2.065071078 Mean Anom(rad): -2.444999845 Af0(s): 0.000607461499 Af1(s/s): 0 week: 359 ******** Week 359 almanac for PRN-10 ******** ID: 10 Health: 0 Eccentricity: 0.01094245911 Time of Applicability(s): 589824 Orbital Inclination(rad): 0.9926857063 Rate of Right Ascen(r/s): -7.977475151e-09 SQRT(A) (m 1/2): 5153.602051 Right Ascen at Week(rad): -2.03977163 Argument of Perigee(rad): -2.255117666 Mean Anom(rad): -1.034565554 Af0(s): -0.0004657707275 Af1(s/s): 0 week: 359 ******** Week 359 almanac for PRN-11 ******** ID: 11 Health: 0 Eccentricity: 0.002213001251 Time of Applicability(s): 589824 Orbital Inclination(rad): 0.9640853536 Rate of Right Ascen(r/s): -7.737465153e-09 SQRT(A) (m 1/2): 5153.530273 Right Ascen at Week(rad): -3.054703279 Argument of Perigee(rad): -2.296362125 Mean Anom(rad): 2.353108928 Af0(s): -0.0003346313965 Af1(s/s): 1.455192e-11 week: 359 ******** Week 359 almanac for PRN-12 ******** ID: 12 Health: 0 Eccentricity: 0.009028911591 Time of Applicability(s): 589824 Orbital Inclination(rad): 0.958938129 Rate of Right Ascen(r/s): -8.034620388e-09 SQRT(A) (m 1/2): 5153.711426 Right Ascen at Week(rad): 1.159840028 Argument of Perigee(rad): 1.559283981 Mean Anom(rad): -0.2445485955 Af0(s): -0.0004800905395 Af1(s/s): 0 week: 359 ******** Week 359 almanac for PRN-13 ******** ID: 13 Health: 0 Eccentricity: 0.01000261307 Time of Applicability(s): 589824 Orbital Inclination(rad): 0.9761954128 Rate of Right Ascen(r/s): -7.817468486e-09 SQRT(A) (m 1/2): 5153.629395 Right Ascen at Week(rad): -0.8554358466 Argument of Perigee(rad): 0.9960070598 Mean Anom(rad): 2.992844455 Af0(s): 0.0005411381592 Af1(s/s): 0 week: 359 ******** Week 359 almanac for PRN-14 ******** ID: 14 Health: 0 Eccentricity: 0.006707668304 Time of Applicability(s): 589824 Orbital Inclination(rad): 0.9423220012 Rate of Right Ascen(r/s): -8.206056101e-09 SQRT(A) (m 1/2): 5153.585449 Right Ascen at Week(rad): 1.105215182 Argument of Perigee(rad): -2.750859735 Mean Anom(rad): -0.4051806521 Af0(s): 0.0005825902466 Af1(s/s): 3.637979e-12 week: 359 ******** Week 359 almanac for PRN-15 ******** ID: 15 Health: 0 Eccentricity: 0.0166182518 Time of Applicability(s): 589824 Orbital Inclination(rad): 0.9424538276 Rate of Right Ascen(r/s): -8.331775623e-09 SQRT(A) (m 1/2): 5153.640137 Right Ascen at Week(rad): -1.174583995 Argument of Perigee(rad): 1.500290136 Mean Anom(rad): 2.244276436 Af0(s): 0.0003082527954 Af1(s/s): 3.637979e-12 week: 359 ******** Week 359 almanac for PRN-16 ******** ID: 16 Health: 0 Eccentricity: 0.01504564285 Time of Applicability(s): 589824 Orbital Inclination(rad): 0.9580572885 Rate of Right Ascen(r/s): -8.068907531e-09 SQRT(A) (m 1/2): 5153.582031 Right Ascen at Week(rad): 1.176823547 Argument of Perigee(rad): 0.9292942502 Mean Anom(rad): -2.016764166 Af0(s): 0.0001718377441 Af1(s/s): 7.275958e-12 week: 359 ******** Week 359 almanac for PRN-17 ******** ID: 17 Health: 0 Eccentricity: 0.01265716553 Time of Applicability(s): 589824 Orbital Inclination(rad): 0.9590340028 Rate of Right Ascen(r/s): -7.886042771e-09 SQRT(A) (m 1/2): 5153.535645 Right Ascen at Week(rad): 2.194405957 Argument of Perigee(rad): -1.122555606 Mean Anom(rad): -3.114776079 Af0(s): -5.9540271e-05 Af1(s/s): -1.091394e-11 week: 359 ******** Week 359 almanac for PRN-18 ******** ID: 18 Health: 0 Eccentricity: 0.005743026733 Time of Applicability(s): 589824 Orbital Inclination(rad): 0.9721866896 Rate of Right Ascen(r/s): -7.657461821e-09 SQRT(A) (m 1/2): 5153.597656 Right Ascen at Week(rad): -3.078534659 Argument of Perigee(rad): -2.863226449 Mean Anom(rad): 1.182732145 Af0(s): -0.0003270946533 Af1(s/s): 1.091394e-11 week: 359 ******** Week 359 almanac for PRN-19 ******** ID: 19 Health: 0 Eccentricity: 0.01112651825 Time of Applicability(s): 589824 Orbital Inclination(rad): 0.9582370518 Rate of Right Ascen(r/s): -7.863184676e-09 SQRT(A) (m 1/2): 5153.665039 Right Ascen at Week(rad): 2.238305671 Argument of Perigee(rad): 2.929880087 Mean Anom(rad): -1.29593738 Af0(s): 0.0005471675537 Af1(s/s): 0 week: 359 ******** Week 359 almanac for PRN-20 ******** ID: 20 Health: 255 Eccentricity: 0.000316619873 Time of Applicability(s): 589824 Orbital Inclination(rad): 0.9600466698 Rate of Right Ascen(r/s): -8.080336578e-09 SQRT(A) (m 1/2): 5153.646973 Right Ascen at Week(rad): -1.024926492 Argument of Perigee(rad): 1.131823157 Mean Anom(rad): 2.879207788 Af0(s): 1.808818359e-05 Af1(s/s): 2.546585e-11 week: 359 ******** Week 359 almanac for PRN-21 ******** ID: 21 Health: 0 Eccentricity: 0.0007352828979 Time of Applicability(s): 589824 Orbital Inclination(rad): 0.9625693491 Rate of Right Ascen(r/s): -8.297488481e-09 SQRT(A) (m 1/2): 5153.708984 Right Ascen at Week(rad): -2.030950117 Argument of Perigee(rad): -0.3525182228 Mean Anom(rad): -0.5131592676 Af0(s): 0.0003195579102 Af1(s/s): 3.637979e-12 week: 359 ******** Week 359 almanac for PRN-22 ******** ID: 22 Health: 0 Eccentricity: 0.01210308075 Time of Applicability(s): 589824 Orbital Inclination(rad): 0.957500022 Rate of Right Ascen(r/s): -8.057478483e-09 SQRT(A) (m 1/2): 5153.561035 Right Ascen at Week(rad): 1.180173887 Argument of Perigee(rad): -0.9942259043 Mean Anom(rad): -2.465960254 Af0(s): -3.165432129e-05 Af1(s/s): 3.637979e-12 week: 359 ******** Week 359 almanac for PRN-23 ******** ID: 23 Health: 0 Eccentricity: 0.006024837494 Time of Applicability(s): 589824 Orbital Inclination(rad): 0.9877002688 Rate of Right Ascen(r/s): -8.011762293e-09 SQRT(A) (m 1/2): 5153.655273 Right Ascen at Week(rad): -2.071854524 Argument of Perigee(rad): -2.737584959 Mean Anom(rad): 0.04980606422 Af0(s): 0.000488380957 Af1(s/s): 3.637979e-12 week: 359 ******** Week 359 almanac for PRN-24 ******** ID: 24 Health: 0 Eccentricity: 0.01789951324 Time of Applicability(s): 589824 Orbital Inclination(rad): 0.9353771428 Rate of Right Ascen(r/s): -7.920329913e-09 SQRT(A) (m 1/2): 5153.601074 Right Ascen at Week(rad): -0.06616453122 Argument of Perigee(rad): 1.134606868 Mean Anom(rad): 1.394125633 Af0(s): -8.064315185e-05 Af1(s/s): 1.818989e-11 week: 359 ******** Week 359 almanac for PRN-25 ******** ID: 25 Health: 0 Eccentricity: 0.01293802261 Time of Applicability(s): 589824 Orbital Inclination(rad): 0.9473553756 Rate of Right Ascen(r/s): -8.137481816e-09 SQRT(A) (m 1/2): 5153.659668 Right Ascen at Week(rad): 1.066011786 Argument of Perigee(rad): 1.157110621 Mean Anom(rad): -0.3809167162 Af0(s): 0.0003481975342 Af1(s/s): -3.637979e-12 week: 359 ******** Week 359 almanac for PRN-26 ******** ID: 26 Health: 0 Eccentricity: 0.01100111008 Time of Applicability(s): 589824 Orbital Inclination(rad): 0.9281866079 Rate of Right Ascen(r/s): -8.343204671e-09 SQRT(A) (m 1/2): 5153.647461 Right Ascen at Week(rad): 0.9914964971 Argument of Perigee(rad): 0.7091826129 Mean Anom(rad): -1.20180766 Af0(s): -0.0002637860107 Af1(s/s): -3.637979e-12 week: 359 ******** Week 359 almanac for PRN-27 ******** ID: 27 Health: 0 Eccentricity: 0.01435279846 Time of Applicability(s): 589824 Orbital Inclination(rad): 0.9524007343 Rate of Right Ascen(r/s): -8.000333246e-09 SQRT(A) (m 1/2): 5153.608887 Right Ascen at Week(rad): 2.12173549 Argument of Perigee(rad): 0.880925544 Mean Anom(rad): -2.9424242 Af0(s): -4.295943603e-05 Af1(s/s): -1.091394e-11 week: 359 ******** Week 359 almanac for PRN-28 ******** ID: 28 Health: 0 Eccentricity: 0.0004181861877 Time of Applicability(s): 589824 Orbital Inclination(rad): 0.9623236725 Rate of Right Ascen(r/s): -7.611745631e-09 SQRT(A) (m 1/2): 5153.750488 Right Ascen at Week(rad): 0.01649441305 Argument of Perigee(rad): 0.03515834532 Mean Anom(rad): 0.7114596156 Af0(s): -0.0004642633789 Af1(s/s): 7.275958e-12 week: 359 ******** Week 359 almanac for PRN-29 ******** ID: 29 Health: 0 Eccentricity: 0.003369808197 Time of Applicability(s): 589824 Orbital Inclination(rad): 0.9616885086 Rate of Right Ascen(r/s): -7.806039438e-09 SQRT(A) (m 1/2): 5153.70752 Right Ascen at Week(rad): 2.211126198 Argument of Perigee(rad): 2.738945543 Mean Anom(rad): -3.074088512 Af0(s): -0.0002901646118 Af1(s/s): 7.275958e-12 week: 359 ******** Week 359 almanac for PRN-30 ******** ID: 30 Health: 0 Eccentricity: 0.008046150207 Time of Applicability(s): 589824 Orbital Inclination(rad): 0.9366474707 Rate of Right Ascen(r/s): -7.851755628e-09 SQRT(A) (m 1/2): 5153.711426 Right Ascen at Week(rad): 0.03328206511 Argument of Perigee(rad): -2.32054292 Mean Anom(rad): 0.2468372079 Af0(s): 0.0001077754272 Af1(s/s): 1.455192e-11 week: 359 ******** Week 359 almanac for PRN-31 ******** ID: 31 Health: 0 Eccentricity: 0.01080799103 Time of Applicability(s): 589824 Orbital Inclination(rad): 0.9551451218 Rate of Right Ascen(r/s): -7.680319916e-09 SQRT(A) (m 1/2): 5153.731934 Right Ascen at Week(rad): 0.06645290163 Argument of Perigee(rad): 0.9394594945 Mean Anom(rad): -0.694028186 Af0(s): -0.0001296319824 Af1(s/s): 3.637979e-12 week: 359 ******** Week 359 almanac for PRN-32 ******** ID: 32 Health: 0 Eccentricity: 0.009332180023 Time of Applicability(s): 589824 Orbital Inclination(rad): 0.9676806211 Rate of Right Ascen(r/s): -7.977475151e-09 SQRT(A) (m 1/2): 5153.685059 Right Ascen at Week(rad): -1.013545598 Argument of Perigee(rad): -1.999650692 Mean Anom(rad): -2.363787247 Af0(s): -5.577189941e-05 Af1(s/s): 1.818989e-11 week: 359